ギャラッド彗星

186P/Garradd (2019)

English version
Home page
Updated on May 22, 2017

---------------------------------------------------------------------

・ プロフィール

・ 軌道要素

Epoch 2019 Apr. 27.0 TT = JDT 2458600.5
T 2019 May 4.94530 TT                                   MPCW
q   4.3894698            (2000.0)            P               Q
n   0.08790517     Peri.  283.79817     -0.26418242     +0.92914498
a   5.0094853      Node   327.06875     -0.59294678     -0.36797265
e   0.1237683      Incl.   28.40963     -0.76067192     -0.03585721
P  11.21
From 175 observations 1975 May 31-2016 May 2, mean residual 0".6.

・ 光度変化

        m1 = 8.5 + 5 logΔ + 10.0 log r

---------------------------------------------------------------------

軌道要素はM.P.E.C. 2016-K18に掲載されたものです。
光度グラフはComet for Windowsで作成したものです。

---------------------------------------------------------------------

Copyright(C) Seiichi Yoshida (comet@aerith.net). All rights reserved.